[[{"header":{"parameterUnit":"m.s-1","parameterCategory":1,"la1":30.2991,"la2":30.254,"lo1":-89.0895,"lo2":-89.0444,"dy":0.0017,"dx":0.0017,"nx":28,"ny":28,"refTime":"2024-07-20T09:00:00:Z","depth":0,"parameterNumber":2,"parameterNumberName":"U-component_of_WINDS"},"data":[0,0,0,0,0,0,0,0,0,0,0,0,0,0,0,0,0,0,0,0,0,0,0,0,0,0,0,0,0,0,0,0,0,0,0,0,0,0,0,0,0,0,0,0,0,0,0,0,0,0,0,0,0,0,0,0,0,0,1.0546,1.0546,0,1.0589,1.0589,1.059,1.0585,1.0584,1.0583,1.0583,1.0631,1.0633,1.0635,0,0,0,0,0,0,0,0,0,0,0,0,0,1.0463,1.0465,1.0546,1.0546,1.0547,1.0588,1.0589,1.059,1.0585,1.0584,1.0583,1.0582,1.063,1.0633,1.0635,0,0,0,0,0,0,0,0,0,0,0,0,0,1.0502,1.0465,1.0545,1.0549,1.055,1.0588,1.0589,1.059,1.0585,1.0584,1.0583,1.0582,1.0629,1.0632,1.0635,1.0674,0,0,1.0644,1.0645,0,0,0,0,0,0,0,0,1.05,1.0505,1.0548,1.0549,1.055,1.058,1.0578,1.0618,1.0585,1.0572,1.0583,1.0582,1.0615,1.0619,1.063,1.0676,1.0678,1.0644,1.0646,1.0647,1.0648,0,0,0,0,0,0,0,1.0497,1.0503,1.0563,1.0549,1.055,1.055,1.0554,1.0585,1.0599,1.0573,1.0573,1.0578,1.0615,1.0627,1.0631,1.0679,1.0644,1.0647,1.0649,1.065,1.0759,1.076,0,0,0,0,0,0,1.0493,1.0501,1.0561,1.0564,1.0522,1.0552,1.0557,1.0572,1.0599,1.0602,1.0578,1.0577,1.0622,1.0627,1.0632,1.0679,1.0647,1.065,1.0652,1.0758,1.0759,1.0761,0,0,0,0,0,0,1.0491,1.0498,1.056,1.0532,1.054,1.0555,1.0571,1.0573,1.0584,1.0603,1.0605,1.0587,1.0622,1.0628,1.0663,1.0681,1.0651,1.0654,1.0756,1.0758,1.076,1.0773,0,0,0,0,0,0,1.0489,1.0498,1.0512,1.0533,1.0542,1.0589,1.0572,1.0575,1.0589,1.0588,1.0612,1.0615,1.0621,1.0659,1.0666,1.0684,1.0656,1.0755,1.0757,1.0759,1.0771,1.0774,1.0778,0,0,0,0,0,1.0486,1.0514,1.0512,1.052,1.0559,1.059,1.0595,1.0601,1.059,1.0605,1.0617,1.0614,1.0678,1.0662,1.0671,1.069,1.0754,1.0757,1.0759,1.0769,1.0774,1.0778,0,0,0,0,0,0,1.0497,1.0517,1.0515,1.0551,1.0568,1.0589,1.0607,1.0606,1.0627,1.0625,1.0633,1.0639,1.0674,1.0685,1.0668,1.0728,1.0714,1.0719,1.0719,1.0724,1.0727,1.0724,1.0659,0,0,0,0,0,1.0503,1.0525,1.0542,1.0572,1.0581,1.0593,1.0606,1.0609,1.0628,1.0636,1.065,1.0669,1.0694,1.071,1.0733,1.0772,1.0778,1.079,1.0793,1.0796,1.08,1.0821,1.0826,1.0769,1.0769,1.0769,0,0,1.0517,1.0531,1.0544,1.0575,1.0589,1.0612,1.0599,1.0624,1.0642,1.064,1.0673,1.0684,1.0707,1.0744,1.0761,1.0754,1.0817,1.0799,1.0802,1.0804,1.0824,1.083,1.0834,1.0771,1.0771,1.077,0,0,1.0553,1.0566,1.0592,1.0606,1.0626,1.0634,1.064,1.0661,1.0668,1.0701,1.07,1.0721,1.0763,1.0779,1.0792,1.0835,1.0833,1.0842,1.0861,1.0882,1.0886,1.089,1.0905,1.091,1.0846,1.0846,1.0846,0,1.0568,1.0602,1.0607,1.0632,1.0645,1.0643,1.067,1.0684,1.0712,1.0721,1.0714,1.0765,1.078,1.0821,1.0831,1.0842,1.085,1.0839,1.0885,1.0889,1.0893,1.0907,1.0913,1.0847,1.0847,1.0847,1.0847,0,1.0619,1.0643,1.0662,1.0686,1.0703,1.0729,1.0738,1.0754,1.0756,1.0764,1.0798,1.0816,1.0842,1.0852,1.0855,1.0893,1.0889,1.0883,1.0869,1.0899,1.0912,1.0918,1.0848,1.0848,1.0848,1.0847,0,0,1.0664,1.069,1.0697,1.0708,1.073,1.0749,1.0776,1.08,1.0814,1.0833,1.0855,1.0891,1.0885,1.09,1.0905,1.0923,1.0955,1.0915,1.0916,1.0921,1.0998,1.1001,1.1008,1.0954,1.0955,1.0956,1.0996,0,1.0702,1.0747,1.0752,1.0792,1.0814,1.0812,1.0836,1.0852,1.0861,1.0882,1.0892,1.0917,1.0908,1.0917,1.0935,1.0947,1.097,1.0944,1.0975,1.0976,1.0969,1.1015,1.1019,1.1056,1.1001,1.1002,1.1003,0,1.0753,1.0772,1.0814,1.0833,1.0842,1.0862,1.0885,1.0905,1.0924,1.0929,1.0946,1.0948,1.0976,1.0961,1.1,1.0982,1.0996,1.1004,1.1005,1.1008,1.0991,1.1018,1.1068,1.1073,1.1011,1.101,1.101,0,1.078,1.0817,1.0846,1.0856,1.0879,1.0893,1.0904,1.0922,1.0936,1.0957,1.0966,1.099,1.1003,1.1022,1.1031,1.1019,1.1069,1.1055,1.1075,1.1075,1.1085,1.1084,1.1137,1.1095,1.1094,1.1094,1.1094,0,1.0822,1.0848,1.0859,1.0877,1.0906,1.0912,1.0941,1.0951,1.0967,1.0988,1.0989,1.1009,1.1019,1.1041,1.1048,1.1079,1.1085,1.1091,1.1092,1.109,1.109,1.1099,1.1096,1.1096,1.1096,1.1095,1.1095,0,1.0857,1.0866,1.0898,1.0917,1.0922,1.0942,1.0959,1.0977,1.0986,1.1012,1.1019,1.1033,1.1058,1.1069,1.1101,1.1105,1.1141,1.1141,1.1134,1.1134,1.1153,1.1151,1.1212,1.1221,1.1174,1.1174,1.1174,0,1.0883,1.0903,1.0923,1.0936,1.0947,1.0969,1.0983,1.099,1.1005,1.1028,1.1044,1.1069,1.1089,1.113,1.1144,1.1168,1.1168,1.1188,1.1172,1.1169,1.1168,1.1167,1.1168,1.1191,1.1192,1.1192,1.1193,0,1.0928,1.0931,1.0951,1.0972,1.0989,1.1007,1.1024,1.1035,1.1045,1.1062,1.1087,1.1103,1.1134,1.116,1.1184,1.1196,1.1196,1.1197,1.1203,1.1201,1.1196,1.1198,1.1141,1.1196,1.1196,1.1195,1.1195,1.1195,1.0959,1.0976,1.0993,1.1015,1.1028,1.1044,1.1062,1.1072,1.1093,1.1118,1.1122,1.1149,1.1168,1.1201,1.1214,1.1236,1.1231,1.1239,1.1241,1.1243,1.1244,1.1193,1.1241,1.1241,1.1241,1.1241,1.124,0,1.1003,1.1014,1.1034,1.1057,1.1075,1.1072,1.1091,1.1106,1.113,1.1147,1.1166,1.1195,1.122,1.1235,1.126,1.1274,1.1275,1.128,1.1279,1.1282,1.1247,1.124,1.1279,1.1279,1.1279,1.1279,1.1279,1.1279,1.1029,1.1057,1.1062,1.1098,1.1108,1.1134,1.1145,1.116,1.1173,1.1205,1.1225,1.1234,1.1251,1.1276,1.1299,1.1303,1.1312,1.1317,1.1321,1.1289,1.1284,1.1281,1.1273,1.1319,1.1319,1.1354,1.1354,1.1354]},{"header":{"parameterUnit":"m.s-1","parameterCategory":1,"la1":30.2991,"la2":30.254,"lo1":-89.0895,"lo2":-89.0444,"dy":0.0017,"dx":0.0017,"nx":28,"ny":28,"refTime":"2024-07-20T09:00:00:Z","depth":0,"parameterNumber":3,"parameterNumberName":"V-component_of_WINDS"},"data":[0,0,0,0,0,0,0,0,0,0,0,0,0,0,0,0,0,0,0,0,0,0,0,0,0,0,0,0,0,0,0,0,0,0,0,0,0,0,0,0,0,0,0,0,0,0,0,0,0,0,0,0,0,0,0,0,0,0,2.737,2.737,0,2.7372,2.7372,2.7372,2.738,2.7381,2.7381,2.7381,2.7382,2.7382,2.7381,0,0,0,0,0,0,0,0,0,0,0,0,0,2.7372,2.7372,2.737,2.737,2.737,2.7372,2.7372,2.7372,2.738,2.7381,2.7381,2.7381,2.7382,2.7382,2.7381,0,0,0,0,0,0,0,0,0,0,0,0,0,2.7372,2.7371,2.737,2.7374,2.7375,2.7372,2.7372,2.7372,2.738,2.7381,2.7381,2.7381,2.7382,2.7382,2.7381,2.7374,0,0,2.7381,2.738,0,0,0,0,0,0,0,0,2.7372,2.7372,2.7373,2.7374,2.7374,2.7376,2.7373,2.7372,2.738,2.7378,2.7381,2.7381,2.738,2.7379,2.7379,2.7374,2.7374,2.7381,2.738,2.738,2.738,0,0,0,0,0,0,0,2.7372,2.7372,2.737,2.7373,2.7374,2.7376,2.7376,2.7373,2.7377,2.7378,2.7379,2.7379,2.738,2.7379,2.7379,2.7374,2.7381,2.738,2.738,2.738,2.7363,2.7362,0,0,0,0,0,0,2.7371,2.7372,2.737,2.7371,2.7374,2.7375,2.7376,2.7375,2.7377,2.7378,2.7379,2.738,2.738,2.738,2.7379,2.7371,2.738,2.738,2.738,2.7363,2.7363,2.7362,0,0,0,0,0,0,2.7371,2.7371,2.737,2.7371,2.7371,2.7375,2.7374,2.7375,2.7375,2.7378,2.7378,2.7378,2.738,2.738,2.7375,2.7371,2.738,2.738,2.7363,2.7363,2.7363,2.7354,0,0,0,0,0,0,2.7371,2.7371,2.7369,2.7371,2.7371,2.7367,2.7374,2.7375,2.7375,2.7375,2.7377,2.7377,2.738,2.7376,2.7375,2.7371,2.738,2.7364,2.7363,2.7363,2.7354,2.7353,2.7352,0,0,0,0,0,2.7371,2.7366,2.7368,2.7368,2.7368,2.7366,2.7366,2.737,2.7374,2.7371,2.7373,2.7377,2.7372,2.7375,2.7375,2.737,2.7364,2.7363,2.7363,2.7355,2.7353,2.7352,0,0,0,0,0,0,2.7362,2.7366,2.7369,2.7364,2.7365,2.7368,2.7364,2.7368,2.7367,2.7368,2.7373,2.7373,2.7368,2.7369,2.7372,2.7363,2.7369,2.7368,2.7363,2.7361,2.736,2.736,2.7379,0,0,0,0,0,2.7359,2.7357,2.7361,2.7356,2.7357,2.736,2.736,2.7363,2.7364,2.7364,2.7365,2.7365,2.7364,2.7363,2.7361,2.7355,2.7355,2.7351,2.735,2.7349,2.7348,2.7345,2.7343,2.736,2.736,2.736,0,0,2.7353,2.7355,2.7354,2.7354,2.7355,2.7353,2.7361,2.7358,2.7357,2.7363,2.7359,2.736,2.7361,2.7356,2.7353,2.7356,2.7343,2.7348,2.7347,2.7347,2.7344,2.7342,2.7341,2.736,2.736,2.736,0,0,2.7342,2.7343,2.734,2.7341,2.7342,2.7345,2.7344,2.7347,2.7348,2.7344,2.7349,2.7347,2.7344,2.7344,2.7344,2.7333,2.7337,2.7333,2.7326,2.7323,2.7321,2.732,2.7316,2.7315,2.7332,2.7332,2.7332,0,2.7334,2.7332,2.7337,2.7335,2.7334,2.7341,2.7337,2.7338,2.7338,2.7338,2.7341,2.7338,2.7339,2.7334,2.7331,2.7331,2.733,2.7332,2.7321,2.732,2.7319,2.7315,2.7314,2.7331,2.7331,2.7331,2.7331,0,2.7323,2.7321,2.7318,2.7319,2.7319,2.7315,2.732,2.7319,2.7322,2.7324,2.732,2.7322,2.7321,2.732,2.7322,2.7315,2.7317,2.732,2.7326,2.7317,2.7313,2.7312,2.7331,2.7331,2.7331,2.7331,0,0,2.7305,2.731,2.7308,2.7309,2.7312,2.731,2.7307,2.7307,2.7306,2.7306,2.7304,2.7301,2.7305,2.7305,2.7308,2.7305,2.7296,2.7309,2.7309,2.7307,2.7288,2.7285,2.7284,2.7299,2.7299,2.7298,2.7288,0,2.7294,2.729,2.7294,2.7289,2.7287,2.7294,2.7291,2.7292,2.7294,2.7293,2.7295,2.7294,2.7298,2.7298,2.7296,2.7298,2.7293,2.7299,2.7296,2.7296,2.7296,2.7282,2.7279,2.7269,2.7287,2.7287,2.7286,0,2.7281,2.7281,2.7276,2.7279,2.7279,2.7276,2.7277,2.7275,2.7277,2.7278,2.7278,2.7282,2.7279,2.7285,2.7281,2.7285,2.7284,2.7285,2.7285,2.7284,2.7291,2.7281,2.7266,2.7265,2.7284,2.7285,2.7285,0,2.7268,2.7268,2.7264,2.7265,2.7269,2.7267,2.7268,2.727,2.7269,2.727,2.7269,2.7269,2.7269,2.7268,2.7271,2.7275,2.7267,2.7273,2.7268,2.7268,2.7266,2.7266,2.725,2.7265,2.7265,2.7265,2.7265,0,2.7256,2.7252,2.7259,2.7257,2.7253,2.7258,2.7254,2.7256,2.7258,2.7256,2.7261,2.7259,2.7264,2.7263,2.7266,2.7262,2.7261,2.7263,2.7263,2.7262,2.7262,2.7262,2.7262,2.7265,2.7265,2.7265,2.7265,0,2.7241,2.7246,2.7242,2.7246,2.7247,2.7244,2.7248,2.7246,2.7248,2.7246,2.7246,2.725,2.7248,2.7252,2.7251,2.7253,2.7247,2.7249,2.7247,2.7248,2.7243,2.7243,2.7226,2.7224,2.7241,2.7241,2.724,0,2.7233,2.723,2.7234,2.7234,2.7235,2.7234,2.7234,2.7239,2.7239,2.724,2.7238,2.7237,2.7237,2.7235,2.7237,2.7236,2.7238,2.7232,2.7238,2.7237,2.7238,2.7238,2.7238,2.7231,2.7231,2.7231,2.7231,0,2.7217,2.722,2.722,2.7221,2.722,2.7221,2.7222,2.7221,2.7227,2.7226,2.7225,2.7225,2.7224,2.7223,2.7223,2.7224,2.7228,2.7229,2.7228,2.7226,2.7225,2.7226,2.7244,2.7229,2.7229,2.7229,2.7229,2.7229,2.7206,2.7204,2.7207,2.7206,2.7208,2.7209,2.7207,2.721,2.721,2.721,2.7213,2.7211,2.7213,2.7213,2.7214,2.7213,2.7215,2.7214,2.7213,2.7213,2.7212,2.7226,2.7213,2.7213,2.7213,2.7213,2.7213,0,2.7191,2.7193,2.7193,2.7194,2.7194,2.7199,2.72,2.7199,2.7198,2.72,2.7199,2.7198,2.7198,2.72,2.72,2.7199,2.72,2.7198,2.7198,2.7199,2.721,2.7211,2.7197,2.7197,2.7197,2.7197,2.7197,2.7197,2.7183,2.718,2.7183,2.7181,2.7183,2.7182,2.7183,2.7184,2.7185,2.7184,2.7183,2.7186,2.7187,2.7187,2.7187,2.7188,2.7187,2.7185,2.7186,2.7196,2.7198,2.7199,2.72,2.7184,2.7184,2.7175,2.7175,2.7175]}]]